QPF
0.08 0.07 0.07 0.04 0.03 0.03 0.05 0.05 0.04 0.04 0.05 0.06 0.05 0.04 0.05 0.05 0.06 0.07 0.06 0.04 0.02 0.02 0.01 0.01 0.01 0.01 0.02 0.03 0.04 0.02 0.02 0.03 0.04 0.05 0.05 0.05 0.06 0.07 0.08 0.06 0.02 0.02 0.02
0.04 0.04 0.04 0.03 0.03 0.02 0.02 0.02 0.02 0.03 0.03 0.04 0.03 0.03 0.03 0.04 0.05 0.05 0.04 0.03 0.03 0.02 0.01 0.01 0.01 0.01 0.02 0.03 0.04 0.02 0.02 0.03 0.05 0.06 0.04 0.04 0.06 0.08 0.08 0.04 0.02 0.03 0.03
0.02 0.01 0.02 0.03 0.02 0.02 0.01 0.01 0.01 0.02 0.02 0.02 0.02 0.02 0.03 0.03 0.03 0.03 0.02 0.02 0.02 0.02 0.01 0.01 0.01 0.02 0.02 0.03 0.02 0.02 0.02 0.02 0.04 0.06 0.04 0.03 0.05 0.06 0.07 0.04 0.03 0.03 0.03
0.02 0.01 0.01 0.02 0.02 0.02 0.01 0.01 0.01 0.01 0.01 0.01 0.02 0.02 0.03 0.03 0.03 0.03 0.02 0.02 0.01 0.01 0.01 0.01 0.02 0.01 0.01 0.02 0.02 0.02 0.02 0.01 0.03 0.04 0.03 0.03 0.03 0.04 0.04 0.03 0.03 0.02 0.02
0.02 0.01 0.01 0.02 0.02 0.02 0.02 0.02 0.01 0.01 0.02 0.02 0.02 0.02 0.03 0.03 0.04 0.03 0.03 0.03 0.01 0.01 0.01 0.01 0.01 0.01 0.01 0.01 0.02 0.01 0.02 0.02 0.03 0.03 0.03 0.02 0.02 0.03 0.03 0.02 0.02 0.02 0.02
0.04 0.02 0.02 0.03 0.02 0.01 0.01 0.01 0.01 0.01 0.01 0.02 0.02 0.02 0.02 0.02 0.03 0.03 0.03 0.03 0.02 0.01 0.01 0.01 0.00 0.01 0.01 0.01 0.01 0.01 0.02 0.03 0.03 0.03 0.03 0.01 0.01 0.03 0.02 0.02 0.01 0.02 0.01
0.04 0.02 0.03 0.04 0.02 0.01 0.01 0.01 0.01 0.00 0.01 0.01 0.02 0.01 0.01 0.01 0.02 0.02 0.01 0.01 0.01 0.01 0.00 0.00 0.00 0.00 0.00 0.01 0.01 0.02 0.03 0.04 0.03 0.04 0.03 0.01 0.02 0.03 0.02 0.01 0.01 0.01 0.01
0.03 0.02 0.03 0.04 0.03 0.02 0.02 0.01 0.00 0.00 0.01 0.01 0.01 0.01 0.01 0.01 0.01 0.01 0.01 0.00 0.00 0.00 0.00 0.00 0.00 0.00 0.01 0.01 0.02 0.02 0.03 0.03 0.03 0.04 0.04 0.02 0.03 0.03 0.02 0.02 0.01 0.01 0.01
0.02 0.02 0.02 0.03 0.03 0.02 0.02 0.02 0.01 0.00 0.00 0.00 0.01 0.01 0.02 0.01 0.01 0.01 0.01 0.01 0.01 0.01 0.01 0.01 0.01 0.01 0.01 0.01 0.01 0.02 0.03 0.05 0.06 0.05 0.05 0.03 0.03 0.02 0.03 0.03 0.02 0.03 0.02
0.02 0.02 0.02 0.02 0.02 0.02 0.02 0.02 0.01 0.01 0.01 0.01 0.02 0.03 0.03 0.02 0.01 0.02 0.02 0.01 0.01 0.01 0.01 0.01 0.01 0.01 0.01 0.01 0.02 0.03 0.04 0.05 0.07 0.07 0.05 0.03 0.01 0.02 0.03 0.02 0.02 0.02 0.02
0.01 0.01 0.02 0.02 0.01 0.02 0.02 0.02 0.02 0.02 0.02 0.02 0.02 0.05 0.06 0.03 0.02 0.03 0.03 0.02 0.01 0.01 0.01 0.01 0.01 0.01 0.01 0.01 0.02 0.02 0.04 0.06 0.08 0.06 0.05 0.03 0.02 0.03 0.02 0.02 0.02 0.01 0.02
0.01 0.01 0.02 0.02 0.01 0.02 0.03 0.02 0.02 0.02 0.01 0.01 0.02 0.03 0.05 0.05 0.04 0.02 0.02 0.02 0.02 0.02 0.02 0.03 0.03 0.02 0.02 0.03 0.03 0.04 0.08 0.10 0.08 0.07 0.07 0.03 0.02 0.02 0.02 0.02 0.01 0.01 0.01
0.01 0.01 0.01 0.02 0.01 0.02 0.02 0.02 0.02 0.01 0.01 0.02 0.02 0.04 0.04 0.05 0.05 0.03 0.03 0.03 0.03 0.03 0.02 0.03 0.04 0.03 0.03 0.05 0.07 0.08 0.09 0.14 0.08 0.11 0.08 0.03 0.03 0.03 0.03 0.02 0.01 0.01 0.02
0.01 0.01 0.02 0.02 0.02 0.02 0.02 0.01 0.02 0.01 0.01 0.01 0.03 0.03 0.04 0.05 0.04 0.03 0.03 0.04 0.03 0.03 0.02 0.03 0.04 0.04 0.05 0.06 0.07 0.07 0.07 0.08 0.07 0.08 0.06 0.03 0.03 0.04 0.03 0.02 0.02 0.02 0.02
0.01 0.01 0.02 0.03 0.01 0.01 0.01 0.01 0.02 0.01 0.01 0.01 0.02 0.02 0.02 0.03 0.03 0.02 0.02 0.02 0.02 0.03 0.03 0.03 0.04 0.06 0.06 0.06 0.08 0.06 0.06 0.07 0.05 0.12 0.07 0.03 0.02 0.04 0.05 0.04 0.03 0.03 0.02
0.01 0.01 0.02 0.03 0.01 0.01 0.01 0.01 0.02 0.01 0.01 0.02 0.02 0.02 0.02 0.02 0.02 0.01 0.02 0.02 0.01 0.02 0.03 0.03 0.04 0.05 0.04 0.04 0.06 0.05 0.04 0.04 0.04 0.07 0.08 0.05 0.04 0.06 0.07 0.05 0.05 0.05 0.04
0.01 0.01 0.02 0.02 0.01 0.01 0.01 0.01 0.02 0.03 0.03 0.03 0.04 0.04 0.04 0.04 0.03 0.02 0.02 0.03 0.02 0.02 0.03 0.03 0.04 0.05 0.03 0.02 0.03 0.03 0.02 0.03 0.05 0.07 0.07 0.06 0.06 0.06 0.05 0.05 0.05 0.05 0.06
0.01 0.01 0.02 0.02 0.02 0.01 0.01 0.03 0.03 0.04 0.03 0.03 0.04 0.05 0.04 0.05 0.04 0.03 0.04 0.05 0.03 0.02 0.03 0.04 0.05 0.05 0.02 0.02 0.03 0.04 0.04 0.05 0.06 0.08 0.06 0.05 0.06 0.07 0.07 0.05 0.06 0.07 0.06
0.00 0.01 0.01 0.01 0.01 0.01 0.01 0.03 0.05 0.05 0.04 0.03 0.03 0.05 0.07 0.05 0.05 0.06 0.05 0.04 0.03 0.03 0.04 0.04 0.05 0.05 0.04 0.03 0.06 0.07 0.05 0.07 0.09 0.06 0.07 0.07 0.07 0.08 0.09 0.07 0.06 0.05 0.04
0.00 0.01 0.01 0.01 0.01 0.01 0.01 0.03 0.05 0.04 0.03 0.03 0.03 0.03 0.07 0.10 0.11 0.12 0.10 0.07 0.05 0.04 0.04 0.04 0.04 0.04 0.04 0.03 0.05 0.06 0.07 0.06 0.09 0.07 0.08 0.07 0.06 0.07 0.09 0.08 0.06 0.04 0.04
0.01 0.01 0.01 0.01 0.01 0.01 0.01 0.01 0.03 0.02 0.02 0.02 0.02 0.02 0.03 0.07 0.14 0.14 0.10 0.09 0.07 0.05 0.04 0.04 0.03 0.03 0.03 0.03 0.08 0.10 0.09 0.07 0.06 0.08 0.10 0.08 0.06 0.06 0.07 0.06 0.06 0.05 0.06
0.01 0.01 0.01 0.01 0.01 0.00 0.00 0.01 0.02 0.01 0.01 0.01 0.01 0.02 0.02 0.04 0.10 0.19 0.15 0.09 0.07 0.05 0.03 0.03 0.03 0.03 0.03 0.04 0.05 0.06 0.06 0.05 0.08 0.11 0.15 0.08 0.05 0.05 0.05 0.04 0.05 0.08 0.14
0.02 0.01 0.01 0.01 0.01 0.01 0.00 0.01 0.01 0.01 0.02 0.02 0.02 0.03 0.02 0.03 0.04 0.08 0.14 0.12 0.09 0.07 0.07 0.05 0.04 0.05 0.05 0.05 0.05 0.07 0.07 0.06 0.05 0.07 0.09 0.08 0.05 0.03 0.04 0.04 0.06 0.08 0.11
0.05 0.04 0.07 0.06 0.03 0.03 0.02 0.01 0.01 0.02 0.03 0.02 0.02 0.03 0.03 0.04 0.06 0.08 0.10 0.14 0.12 0.10 0.11 0.09 0.07 0.07 0.06 0.07 0.07 0.06 0.07 0.08 0.07 0.05 0.08 0.09 0.05 0.05 0.06 0.06 0.08 0.13 0.17
0.06 0.05 0.09 0.08 0.04 0.02 0.02 0.03 0.03 0.02 0.02 0.03 0.03 0.03 0.03 0.03 0.04 0.05 0.07 0.13 0.18 0.15 0.13 0.10 0.08 0.07 0.08 0.08 0.08 0.08 0.08 0.09 0.11 0.11 0.10 0.09 0.06 0.05 0.05 0.06 0.08 0.15 0.24
0.06 0.04 0.07 0.07 0.04 0.03 0.03 0.04 0.04 0.03 0.04 0.04 0.05 0.03 0.04 0.03 0.04 0.06 0.12 0.16 0.17 0.20 0.19 0.11 0.09 0.08 0.08 0.07 0.07 0.07 0.08 0.09 0.12 0.17 0.15 0.11 0.09 0.07 0.07 0.08 0.09 0.17 0.23
MSLP
1012.23 1011.68 1011.28 1011.08 1011.08 1011.23 1011.46 1011.71 1011.93 1012.08 1012.17 1012.26 1012.37 1012.56 1012.84 1013.22 1013.65 1014.10 1014.51 1014.85 1015.10 1015.27 1015.39 1015.49 1015.59 1015.71 1015.86 1016.01 1016.16 1016.28 1016.36 1016.41 1016.44 1016.46 1016.49 1016.54 1016.61 1016.69 1016.75 1016.79 1016.80 1016.77 1016.72
1012.33 1011.88 1011.56 1011.41 1011.43 1011.59 1011.81 1012.04 1012.23 1012.37 1012.47 1012.56 1012.69 1012.90 1013.20 1013.57 1013.99 1014.41 1014.78 1015.07 1015.28 1015.41 1015.49 1015.56 1015.64 1015.75 1015.88 1016.02 1016.16 1016.27 1016.35 1016.39 1016.42 1016.45 1016.49 1016.56 1016.65 1016.75 1016.84 1016.90 1016.93 1016.93 1016.90
1012.27 1011.92 1011.69 1011.61 1011.68 1011.85 1012.08 1012.30 1012.49 1012.63 1012.73 1012.84 1012.98 1013.20 1013.49 1013.85 1014.24 1014.62 1014.95 1015.20 1015.36 1015.46 1015.52 1015.57 1015.64 1015.74 1015.86 1016.00 1016.12 1016.22 1016.29 1016.34 1016.37 1016.41 1016.47 1016.55 1016.65 1016.77 1016.88 1016.96 1017.02 1017.05 1017.06
1012.11 1011.86 1011.72 1011.72 1011.84 1012.06 1012.30 1012.54 1012.73 1012.87 1012.98 1013.10 1013.25 1013.46 1013.74 1014.07 1014.42 1014.76 1015.04 1015.25 1015.39 1015.47 1015.53 1015.58 1015.65 1015.75 1015.86 1015.99 1016.10 1016.19 1016.25 1016.30 1016.33 1016.37 1016.43 1016.52 1016.63 1016.75 1016.87 1016.97 1017.06 1017.13 1017.18
1011.91 1011.76 1011.72 1011.80 1011.99 1012.24 1012.52 1012.77 1012.97 1013.12 1013.24 1013.35 1013.50 1013.70 1013.95 1014.25 1014.56 1014.85 1015.09 1015.28 1015.40 1015.49 1015.56 1015.63 1015.71 1015.81 1015.93 1016.04 1016.14 1016.21 1016.26 1016.29 1016.32 1016.35 1016.41 1016.49 1016.58 1016.69 1016.80 1016.92 1017.03 1017.13 1017.23
1011.77 1011.71 1011.74 1011.90 1012.14 1012.43 1012.73 1013.00 1013.21 1013.36 1013.48 1013.60 1013.74 1013.92 1014.15 1014.40 1014.67 1014.92 1015.13 1015.30 1015.43 1015.53 1015.62 1015.72 1015.83 1015.94 1016.05 1016.15 1016.23 1016.28 1016.30 1016.31 1016.32 1016.34 1016.38 1016.43 1016.51 1016.59 1016.69 1016.79 1016.91 1017.03 1017.18
1011.75 1011.75 1011.85 1012.05 1012.33 1012.65 1012.95 1013.21 1013.42 1013.57 1013.69 1013.81 1013.94 1014.11 1014.31 1014.53 1014.76 1014.97 1015.16 1015.32 1015.45 1015.57 1015.69 1015.82 1015.95 1016.08 1016.20 1016.28 1016.33 1016.36 1016.35 1016.34 1016.32 1016.32 1016.33 1016.36 1016.40 1016.45 1016.51 1016.59 1016.70 1016.83 1017.00
1011.84 1011.89 1012.03 1012.27 1012.56 1012.87 1013.15 1013.39 1013.58 1013.72 1013.83 1013.95 1014.08 1014.24 1014.43 1014.63 1014.82 1015.01 1015.17 1015.31 1015.45 1015.58 1015.72 1015.87 1016.02 1016.16 1016.27 1016.35 1016.38 1016.37 1016.34 1016.30 1016.27 1016.24 1016.23 1016.23 1016.24 1016.26 1016.29 1016.34 1016.42 1016.55 1016.72
1012.03 1012.11 1012.28 1012.52 1012.80 1013.07 1013.31 1013.51 1013.66 1013.78 1013.88 1014.00 1014.15 1014.31 1014.49 1014.68 1014.85 1015.00 1015.13 1015.25 1015.37 1015.50 1015.65 1015.81 1015.96 1016.10 1016.21 1016.27 1016.29 1016.27 1016.22 1016.17 1016.12 1016.09 1016.06 1016.05 1016.04 1016.03 1016.03 1016.05 1016.11 1016.21 1016.38
1012.23 1012.34 1012.53 1012.76 1013.00 1013.22 1013.40 1013.54 1013.65 1013.74 1013.84 1013.97 1014.13 1014.31 1014.50 1014.68 1014.83 1014.95 1015.04 1015.12 1015.20 1015.31 1015.43 1015.58 1015.73 1015.86 1015.97 1016.02 1016.03 1016.01 1015.96 1015.91 1015.86 1015.83 1015.82 1015.81 1015.79 1015.78 1015.76 1015.77 1015.80 1015.88 1016.03
1012.38 1012.53 1012.72 1012.94 1013.14 1013.31 1013.42 1013.50 1013.56 1013.63 1013.73 1013.88 1014.06 1014.26 1014.46 1014.63 1014.77 1014.85 1014.89 1014.92 1014.95 1015.01 1015.09 1015.21 1015.33 1015.45 1015.55 1015.61 1015.62 1015.60 1015.57 1015.53 1015.51 1015.50 1015.50 1015.51 1015.52 1015.51 1015.51 1015.50 1015.53 1015.59 1015.71
1012.40 1012.59 1012.81 1013.02 1013.19 1013.31 1013.37 1013.40 1013.42 1013.48 1013.58 1013.74 1013.95 1014.18 1014.39 1014.56 1014.68 1014.72 1014.72 1014.68 1014.65 1014.64 1014.67 1014.74 1014.83 1014.93 1015.02 1015.08 1015.11 1015.11 1015.09 1015.08 1015.08 1015.10 1015.13 1015.17 1015.21 1015.24 1015.25 1015.27 1015.29 1015.35 1015.46
1012.26 1012.51 1012.77 1012.99 1013.14 1013.23 1013.26 1013.26 1013.27 1013.31 1013.43 1013.60 1013.83 1014.08 1014.30 1014.48 1014.57 1014.59 1014.54 1014.44 1014.35 1014.27 1014.24 1014.25 1014.30 1014.38 1014.46 1014.52 1014.57 1014.59 1014.60 1014.61 1014.63 1014.67 1014.73 1014.80 1014.87 1014.93 1014.98 1015.02 1015.07 1015.14 1015.24
1011.97 1012.27 1012.57 1012.82 1012.99 1013.08 1013.11 1013.11 1013.12 1013.17 1013.29 1013.48 1013.72 1013.97 1014.20 1014.37 1014.46 1014.45 1014.37 1014.23 1014.09 1013.96 1013.87 1013.83 1013.85 1013.90 1013.96 1014.03 1014.08 1014.12 1014.14 1014.16 1014.20 1014.24 1014.31 1014.39 1014.48 1014.57 1014.66 1014.74 1014.81 1014.90 1015.01
1011.55 1011.91 1012.25 1012.54 1012.74 1012.87 1012.93 1012.95 1012.99 1013.05 1013.18 1013.37 1013.60 1013.85 1014.07 1014.24 1014.32 1014.30 1014.21 1014.06 1013.89 1013.73 1013.61 1013.54 1013.52 1013.54 1013.59 1013.65 1013.70 1013.74 1013.76 1013.78 1013.79 1013.82 1013.87 1013.94 1014.03 1014.13 1014.24 1014.35 1014.46 1014.58 1014.70
1011.07 1011.45 1011.83 1012.16 1012.42 1012.60 1012.72 1012.80 1012.87 1012.96 1013.09 1013.26 1013.47 1013.69 1013.89 1014.04 1014.12 1014.12 1014.05 1013.92 1013.76 1013.60 1013.47 1013.38 1013.33 1013.34 1013.37 1013.41 1013.45 1013.47 1013.47 1013.46 1013.44 1013.43 1013.43 1013.45 1013.51 1013.59 1013.70 1013.82 1013.96 1014.11 1014.26
1010.60 1010.98 1011.37 1011.73 1012.04 1012.29 1012.49 1012.64 1012.76 1012.88 1013.01 1013.15 1013.31 1013.48 1013.64 1013.77 1013.85 1013.88 1013.85 1013.77 1013.65 1013.53 1013.41 1013.32 1013.26 1013.24 1013.25 1013.27 1013.29 1013.29 1013.26 1013.20 1013.13 1013.05 1012.98 1012.94 1012.93 1012.97 1013.05 1013.18 1013.33 1013.49 1013.66
1010.21 1010.55 1010.92 1011.29 1011.65 1011.97 1012.25 1012.48 1012.66 1012.81 1012.92 1013.02 1013.12 1013.22 1013.33 1013.43 1013.51 1013.58 1013.60 1013.59 1013.54 1013.47 1013.39 1013.31 1013.26 1013.22 1013.20 1013.20 1013.19 1013.16 1013.10 1013.00 1012.86 1012.71 1012.56 1012.43 1012.35 1012.32 1012.36 1012.45 1012.60 1012.77 1012.96
1009.94 1010.20 1010.52 1010.88 1011.27 1011.66 1012.02 1012.33 1012.57 1012.74 1012.85 1012.90 1012.92 1012.95 1012.99 1013.05 1013.13 1013.22 1013.31 1013.38 1013.41 1013.41 1013.37 1013.32 1013.26 1013.21 1013.17 1013.14 1013.11 1013.06 1012.97 1012.83 1012.65 1012.44 1012.21 1011.99 1011.82 1011.72 1011.69 1011.75 1011.87 1012.03 1012.22
1009.81 1009.98 1010.22 1010.55 1010.95 1011.38 1011.82 1012.21 1012.51 1012.71 1012.80 1012.80 1012.76 1012.70 1012.67 1012.68 1012.75 1012.87 1013.02 1013.16 1013.27 1013.33 1013.34 1013.31 1013.26 1013.19 1013.14 1013.09 1013.04 1012.98 1012.88 1012.73 1012.53 1012.27 1011.98 1011.69 1011.44 1011.26 1011.16 1011.15 1011.23 1011.37 1011.56
1009.80 1009.86 1010.02 1010.30 1010.69 1011.16 1011.66 1012.11 1012.48 1012.71 1012.80 1012.77 1012.66 1012.53 1012.43 1012.40 1012.45 1012.59 1012.78 1012.97 1013.15 1013.26 1013.31 1013.30 1013.25 1013.17 1013.10 1013.04 1012.99 1012.94 1012.85 1012.72 1012.52 1012.25 1011.92 1011.59 1011.27 1011.01 1010.83 1010.76 1010.79 1010.89 1011.04
1009.88 1009.85 1009.92 1010.14 1010.51 1011.00 1011.54 1012.05 1012.48 1012.76 1012.86 1012.81 1012.66 1012.48 1012.32 1012.25 1012.28 1012.42 1012.63 1012.87 1013.08 1013.24 1013.31 1013.31 1013.25 1013.17 1013.09 1013.03 1012.99 1012.96 1012.91 1012.81 1012.64 1012.39 1012.06 1011.70 1011.33 1011.01 1010.76 1010.62 1010.57 1010.62 1010.73
1009.97 1009.88 1009.88 1010.05 1010.39 1010.87 1011.44 1012.01 1012.49 1012.81 1012.95 1012.91 1012.75 1012.53 1012.34 1012.24 1012.25 1012.38 1012.60 1012.86 1013.10 1013.27 1013.36 1013.36 1013.30 1013.21 1013.13 1013.07 1013.06 1013.07 1013.07 1013.02 1012.90 1012.69 1012.38 1012.01 1011.62 1011.25 1010.94 1010.72 1010.61 1010.58 1010.64
1010.03 1009.90 1009.86 1009.97 1010.28 1010.75 1011.33 1011.93 1012.46 1012.84 1013.02 1013.01 1012.87 1012.65 1012.45 1012.34 1012.34 1012.46 1012.68 1012.94 1013.19 1013.37 1013.46 1013.46 1013.40 1013.31 1013.23 1013.19 1013.21 1013.26 1013.31 1013.33 1013.27 1013.11 1012.84 1012.48 1012.08 1011.67 1011.31 1011.02 1010.83 1010.73 1010.71
1010.00 1009.87 1009.80 1009.88 1010.15 1010.59 1011.17 1011.79 1012.35 1012.77 1013.01 1013.05 1012.95 1012.76 1012.58 1012.47 1012.47 1012.59 1012.80 1013.06 1013.31 1013.49 1013.59 1013.59 1013.53 1013.44 1013.37 1013.36 1013.40 1013.49 1013.60 1013.67 1013.68 1013.57 1013.34 1013.01 1012.61 1012.18 1011.77 1011.42 1011.16 1010.98 1010.89
1009.86 1009.76 1009.68 1009.73 1009.96 1010.37 1010.92 1011.54 1012.12 1012.58 1012.87 1012.97 1012.92 1012.79 1012.64 1012.55 1012.56 1012.69 1012.90 1013.16 1013.41 1013.59 1013.69 1013.70 1013.65 1013.58 1013.53 1013.53 1013.60 1013.72 1013.87 1013.99 1014.05 1013.99 1013.81 1013.51 1013.13 1012.69 1012.26 1011.86 1011.53 1011.28 1011.11
Thickness
5777 5781 5781 5782 5782 5782 5781 5781 5780 5780 5779 5778 5777 5777 5775 5774 5772 5771 5770 5769 5768 5767 5767 5766 5765 5765 5765 5764 5763 5763 5762 5761 5760 5759 5758 5757 5755 5754 5752 5751 5750 5749 5748
5781 5781 5781 5781 5781 5781 5780 5780 5780 5779 5778 5777 5776 5775 5774 5773 5772 5770 5769 5768 5767 5767 5766 5765 5765 5764 5764 5763 5762 5762 5761 5760 5759 5758 5757 5756 5754 5752 5751 5750 5749 5748 5747
5783 5782 5781 5781 5780 5780 5780 5779 5779 5778 5777 5776 5775 5774 5773 5772 5771 5770 5769 5768 5767 5766 5766 5765 5764 5764 5763 5763 5762 5761 5760 5759 5758 5757 5756 5754 5753 5752 5751 5749 5748 5747 5746
5784 5783 5782 5780 5780 5779 5779 5778 5778 5777 5776 5776 5775 5774 5772 5771 5770 5769 5769 5767 5767 5766 5765 5765 5764 5763 5763 5762 5761 5760 5759 5758 5757 5756 5755 5754 5753 5751 5750 5749 5748 5747 5745
5784 5783 5781 5780 5779 5779 5778 5778 5777 5776 5776 5775 5774 5773 5772 5771 5770 5769 5768 5767 5766 5765 5764 5764 5763 5763 5762 5762 5761 5760 5759 5758 5757 5756 5754 5753 5752 5751 5750 5749 5748 5746 5745
5784 5783 5782 5780 5779 5779 5778 5777 5776 5775 5775 5774 5773 5772 5771 5770 5769 5768 5767 5766 5766 5765 5764 5763 5763 5763 5762 5761 5760 5759 5759 5758 5757 5756 5754 5753 5752 5751 5750 5749 5748 5746 5745
5784 5782 5781 5780 5779 5779 5778 5777 5776 5775 5774 5773 5772 5771 5770 5769 5769 5768 5767 5766 5766 5765 5764 5763 5763 5762 5762 5761 5760 5760 5759 5758 5757 5755 5754 5752 5751 5750 5750 5749 5748 5746 5745
5784 5782 5781 5780 5779 5778 5777 5776 5775 5774 5773 5773 5772 5771 5770 5769 5768 5767 5767 5766 5766 5765 5764 5763 5763 5763 5762 5761 5760 5760 5759 5758 5758 5756 5754 5753 5752 5751 5749 5748 5747 5746 5745
5784 5782 5781 5779 5779 5778 5777 5775 5774 5774 5773 5772 5771 5771 5770 5769 5768 5767 5767 5766 5766 5765 5764 5764 5763 5763 5762 5761 5760 5759 5759 5758 5757 5757 5755 5754 5752 5751 5750 5749 5748 5746 5745
5783 5781 5780 5779 5778 5778 5776 5775 5774 5773 5773 5772 5771 5770 5769 5769 5768 5768 5767 5766 5766 5766 5765 5764 5764 5763 5762 5762 5761 5760 5759 5758 5757 5757 5756 5755 5753 5752 5751 5749 5748 5747 5745
5780 5780 5780 5779 5778 5777 5776 5775 5774 5773 5773 5772 5771 5770 5770 5769 5769 5768 5768 5767 5767 5766 5766 5765 5765 5764 5763 5763 5762 5761 5760 5759 5758 5757 5757 5756 5754 5753 5752 5750 5749 5747 5746
5778 5779 5780 5780 5779 5778 5777 5776 5775 5774 5772 5772 5771 5771 5770 5769 5769 5769 5768 5768 5768 5767 5767 5766 5766 5765 5764 5764 5763 5762 5761 5760 5759 5759 5758 5757 5756 5754 5753 5751 5749 5748 5746
5782 5781 5781 5781 5780 5779 5778 5777 5776 5774 5773 5772 5771 5771 5770 5770 5769 5769 5769 5768 5768 5767 5767 5767 5766 5766 5765 5764 5764 5763 5763 5762 5761 5760 5760 5759 5757 5756 5754 5752 5750 5748 5747
5784 5783 5783 5783 5781 5780 5779 5778 5777 5775 5774 5773 5772 5771 5770 5769 5769 5769 5769 5768 5768 5767 5767 5767 5767 5767 5766 5766 5765 5765 5764 5764 5763 5762 5761 5760 5758 5757 5755 5753 5751 5750 5748
5786 5786 5786 5786 5784 5782 5780 5779 5777 5776 5775 5774 5773 5772 5771 5770 5769 5769 5769 5769 5768 5768 5767 5768 5767 5767 5767 5767 5767 5767 5767 5766 5765 5764 5763 5761 5759 5758 5756 5754 5752 5751 5749
5789 5788 5788 5787 5786 5784 5782 5780 5779 5777 5776 5775 5774 5773 5773 5772 5771 5770 5769 5769 5769 5769 5769 5768 5768 5768 5768 5769 5769 5769 5769 5768 5767 5765 5764 5762 5761 5759 5758 5756 5754 5752 5750
5792 5791 5789 5788 5787 5785 5783 5782 5780 5779 5777 5776 5775 5775 5774 5773 5772 5771 5770 5770 5770 5770 5770 5769 5769 5769 5769 5769 5769 5769 5770 5769 5767 5766 5764 5763 5762 5760 5759 5757 5755 5753 5751
5795 5792 5791 5791 5788 5786 5784 5783 5781 5780 5778 5777 5776 5776 5775 5774 5773 5771 5770 5770 5771 5770 5770 5769 5768 5767 5766 5767 5767 5768 5769 5769 5768 5766 5765 5764 5762 5761 5759 5758 5756 5754 5752
5798 5795 5793 5792 5790 5787 5786 5784 5782 5781 5779 5778 5777 5776 5776 5775 5774 5772 5771 5771 5771 5770 5769 5769 5767 5766 5764 5764 5765 5767 5768 5768 5768 5767 5765 5764 5763 5761 5760 5758 5757 5755 5753
5801 5798 5795 5793 5791 5789 5786 5784 5782 5780 5779 5779 5778 5777 5777 5776 5775 5773 5772 5771 5771 5769 5768 5768 5766 5766 5765 5764 5765 5765 5766 5768 5768 5767 5766 5765 5763 5761 5759 5758 5756 5755 5753
5801 5798 5795 5792 5790 5788 5785 5781 5778 5777 5777 5778 5779 5778 5777 5776 5775 5774 5773 5772 5771 5769 5768 5768 5766 5764 5763 5764 5760 5759 5763 5766 5767 5766 5766 5764 5763 5761 5759 5758 5756 5754 5753
5802 5799 5796 5794 5792 5790 5787 5785 5782 5780 5779 5780 5780 5779 5778 5776 5775 5774 5772 5772 5771 5769 5767 5766 5765 5761 5761 5762 5757 5751 5749 5753 5760 5764 5763 5762 5761 5760 5758 5757 5756 5753 5752
5802 5800 5798 5795 5793 5791 5789 5786 5783 5780 5779 5777 5777 5777 5778 5777 5776 5775 5773 5772 5770 5769 5766 5764 5763 5760 5757 5759 5759 5752 5744 5741 5747 5755 5758 5759 5758 5757 5756 5756 5753 5751 5750
5805 5803 5799 5796 5793 5791 5789 5785 5781 5776 5773 5775 5776 5777 5777 5777 5776 5774 5772 5771 5769 5768 5766 5764 5763 5760 5758 5754 5756 5756 5753 5750 5743 5742 5749 5753 5754 5753 5753 5754 5752 5750 5748
5808 5804 5801 5797 5795 5793 5790 5787 5783 5779 5778 5777 5777 5776 5775 5775 5775 5774 5772 5770 5768 5767 5765 5764 5762 5760 5758 5755 5753 5752 5751 5749 5746 5740 5737 5742 5747 5750 5750 5750 5749 5748 5747
5807 5805 5801 5796 5794 5792 5790 5787 5784 5780 5778 5775 5774 5772 5772 5772 5772 5772 5771 5769 5768 5766 5765 5763 5761 5760 5758 5755 5753 5751 5748 5745 5742 5738 5735 5735 5737 5743 5746 5747 5746 5745 5744